{"data":{"norad_id":62062,"intl_designator":"2024-217F","name":"STARLINK-11470 [DTC]","alt_names":[],"object_type":"PAYLOAD","status":"ACTIVE","operator":null,"country":"US","launch_date":"2024-11-24","launch_site_code":"AFWTR","launch_vehicle":null,"mission":null,"orbit_class":"UNKNOWN","rcs_meters":null,"size_class":null,"mass_kg":null,"dimensions":null,"purposes":["comms"],"wikipedia_slug":null,"has_3d_model":false,"image_url":null,"decayed_at":null,"tle_current":{"epoch":"2026-05-25T03:48:53.185824Z","epoch_age_seconds":57822,"freshness":"FRESH","line1":"1 62062U 24217F   26145.15894891  .00178765  00000+0  14453-2 0  9997","line2":"2 62062  53.1571  54.3071 0001014  83.7108 276.4026 15.69768664 87126","mean_motion":15.69768664,"eccentricity":0.0001014,"inclination_deg":53.1571,"raan_deg":54.3071,"arg_perigee_deg":83.7108,"mean_anomaly_deg":276.4026,"bstar":0.0014453,"rev_number":8712,"period_min":91.733261914572,"perigee_km":358.87567937281,"apogee_km":360.24208409762,"semimajor_km":6737.6958817352,"source":"CELESTRAK","updated_at":"2026-05-25T13:38:19.530558Z"}}}